Meteo Giornale » Osservazioni meteo Stati Uniti (USA) » Carroll Cnty

ore: 17:35 - Osservazioni Meteo Carroll Cnty
Lat. 39° 36' N Lon. 77° 0' W Alt. 241 metri s.l.m.

molto_nuvoloso

32 °C

Molto Nuvoloso

Temp. 24 Ore

22 °C

32 °C

Sud-Ovest

9.3 Km/h

Dew point 24 °C

Umidità 62 %

Visibilità  10 Km

Il sole sorge alle ore 06:36

Il sole tramonta alle ore 19:39

Data e Ora Cielo e Fenomeni T °C DP °C Um. % Pres. hPa Vis. km Vento km/h
Oggi h: 17:35 molto_nuvoloso Molto Nuvoloso 32 24 62 1015 10 SO 9.3
Oggi h: 17:15 molto_nuvoloso Molto Nuvoloso 32 24 62 1015 10 SO 14.8
Oggi h: 16:55 nuvoloso Nuvoloso 32 23 59 1015 10 SO 13
Oggi h: 16:35 poco_nuvoloso Poco Nuvoloso 32 23 59 1015 10 SO 14.8
Oggi h: 16:15 sereno Sereno 32 23 59 1015 10 SO 14.8
Oggi h: 15:55 sereno Sereno 32 23 59 1015 13 O 11.1
Oggi h: 15:35 sereno Sereno 32 23 59 1015 10 SO 13
Oggi h: 15:15 poco_nuvoloso Poco Nuvoloso 32 23 59 1016 14 SO 13
Oggi h: 14:55 molto_nuvoloso Molto Nuvoloso 31 23 62 1016 10 O/SO 13
Oggi h: 14:35 poco_nuvoloso Poco Nuvoloso 31 23 62 1016 13 SO 16.7
Oggi h: 14:15 nuvoloso Nuvoloso 30 23 66 1016 10 SO 11.1
Oggi h: 13:55 nuvoloso Nuvoloso 30 23 66 1016 14 O 16.7
Oggi h: 13:35 sereno Sereno 30 23 66 1016 10 O 13
Oggi h: 13:15 sereno Sereno 30 23 66 1016 10 O/SO 13
Oggi h: 12:55 sereno Sereno 29 23 70 1016 10 SO 14.8
Oggi h: 12:35 poco_nuvoloso Poco Nuvoloso 29 23 70 1016 13 SO 13
Oggi h: 12:15 poco_nuvoloso Poco Nuvoloso 28 23 74 1017 10 O/SO 14.8
Oggi h: 11:55 poco_nuvoloso Poco Nuvoloso 28 23 74 1017 10 O/SO 7.4
Oggi h: 11:35 poco_nuvoloso Poco Nuvoloso 28 23 74 1017 10 O/SO 11.1
Oggi h: 11:15 sereno Sereno 29 23 70 1017 10 SO 11.1
Oggi h: 10:55 sereno Sereno 29 23 70 1017 13 SO 13
Oggi h: 10:35 sereno Sereno 28 22 69 1017 10 O/SO 9.3
Oggi h: 10:15 sereno Sereno 28 22 69 1017 10 SO 11.1
Oggi h: 09:55 poco_nuvoloso Poco Nuvoloso 27 22 74 1017 10 O 13
Oggi h: 09:35 poco_nuvoloso Poco Nuvoloso 26 22 78 1017 10 SO 11.1
Oggi h: 09:15 sereno Sereno 25 23 88 1017 10 SO 11.1
Oggi h: 08:55 poco_nuvoloso Poco Nuvoloso 25 23 88 1017 10 SO 11.1
Oggi h: 08:35 sereno Sereno 25 22 83 1018 10 SO 14.8
Oggi h: 08:15 sereno Sereno 25 22 83 1018 10 SO 13
Oggi h: 07:55 sereno Sereno 25 22 83 1018 10 SO 13
Oggi h: 07:35 sereno Sereno 24 22 88 1017 10 O/SO 13
Oggi h: 07:15 sereno Sereno 23 23 100 1017 13 SO 11.1
Oggi h: 06:55 foschia Foschia 23 22 94 1017 10 SO 13
Oggi h: 06:35 foschia Foschia 23 22 94 1017 8 SO 9.3
Oggi h: 06:15 sereno Sereno 23 22 94 1017 13 S/SO 7.4
Oggi h: 05:55 sereno Sereno 23 22 94 1017 13 SO 9.3
Oggi h: 05:35 sereno Sereno 23 22 94 1017 14 SO 9.3
Oggi h: 05:15 sereno Sereno 23 22 94 1017 10 SO 7.4
Oggi h: 04:55 sereno Sereno 23 22 94 1017 10 SO 9.3
Oggi h: 04:35 sereno Sereno 23 22 94 1017 10 SO 7.4
Oggi h: 04:15 poco_nuvoloso Poco Nuvoloso 23 22 94 1017 13 SO 7.4
Oggi h: 03:55 sereno Sereno 23 22 94 1017 14 N 5.5
Oggi h: 03:35 sereno Sereno 23 22 94 1017 13 N 5.5
Oggi h: 03:15 foschia Foschia 22 22 100 1017 10 N 5.5
Oggi h: 02:55 foschia Foschia 22 22 100 1018 11 N 5.5
Oggi h: 02:35 sereno Sereno 23 22 94 1018 13 N 5.5
Oggi h: 02:15 nuvoloso Nuvoloso 23 22 94 1018 14 N 3.7
Oggi h: 01:55 coperto Coperto 23 22 94 1018 10 N 5.5
Oggi h: 01:35 nuvoloso Nuvoloso 23 22 94 1018 10 N 3.7
Oggi h: 01:15 poco_nuvoloso Poco Nuvoloso 23 22 94 1018 10 S 7.4
Oggi h: 00:55 nuvoloso Nuvoloso 23 22 94 1018 10 S 7.4
Oggi h: 00:35 coperto Coperto 23 22 94 1019 10 S 7.4
Oggi h: 00:15 coperto Coperto 23 22 94 1019 10 S/SE 9.3
Ieri h: 23:55 coperto Coperto 24 21 83 1019 10 N 3.7
Ieri h: 23:35 coperto Coperto 24 21 83 1019 10 N 1.8
Ieri h: 23:15 coperto_pioggia Pioggia 24 21 83 1019 10 N 3.7
Ieri h: 22:55 molto_nuvoloso Molto Nuvoloso 24 21 83 1019 10 N 3.7
Ieri h: 22:35 nuvoloso Nuvoloso 24 21 83 1019 10 N 5.5
Ieri h: 22:15 sereno Sereno 24 21 83 1019 10 SO 9.3
Ieri h: 21:55 molto_nuvoloso Molto Nuvoloso 25 21 78 1019 10 N 5.5
Ieri h: 21:35 coperto Coperto 24 21 83 1019 10 S 9.3
Ieri h: 21:15 coperto Coperto 24 21 83 1019 10 S 11.1
Ieri h: 20:55 molto_nuvoloso Molto Nuvoloso 24 21 83 1019 10 S/SE 7.4
Ieri h: 20:35 sereno Sereno 24 21 83 1018 10 S 7.4
Ieri h: 20:15 sereno Sereno 24 21 83 1018 10 N 5.5
Ieri h: 19:55 sereno Sereno 25 21 78 1018 10 N 5.5
Ieri h: 19:35 sereno Sereno 25 21 78 1018 10 S 9.3
Ieri h: 19:15 sereno Sereno 25 22 83 1018 10 S 14.8
Ieri h: 18:55 sereno Sereno 26 21 73 1019 10 S 7.4
Ieri h: 18:35 poco_nuvoloso Poco Nuvoloso 26 22 78 1019 10 S 7.4